Flag for China Weather past 2 weeks in Kunming, Yunnan, China

Now
61 °F

Passing clouds.


Feels Like: 61 °F
Forecast: 47 / 67 °F
Wind: 10 mph from South

Location: Kunming Airport

Current Time: Oct 22, 2014 at 9:53:32 PM

Latest Report: Oct 22, 2014 at 9:00 PM


Visibility: N/A

Pressure: 30.30 "Hg

Humidity: 68%

Dew point: 50 °F

Location of KunmingLocation

Historic Weather in Kunming — Graph

°F

Kunming temperature yesterday

Maximum temperature yesterday: 70 °F (at 3:00 PM)
Minimum temperature yesterday: 48 °F (at 5:00 AM)
Average temperature yesterday: 57 °F

Past Weeks' High & Low Weather Summary

 TemperatureHumidityPressure
High73 °F (Oct 9, 4:00 PM)100% (Oct 9, 7:00 AM)30.45 "Hg (Oct 9, 7:00 AM)
Low46 °F (Oct 8, 6:00 AM)35% (Oct 21, 4:00 PM)30.09 "Hg (Oct 9, 5:00 PM)
Average59 °F86%30.26 "Hg
* Reported Oct 7 8:00 PM — Oct 22 8:00 PM, Kunming, Weather by CustomWeather, © 2014

Note: Actual official high and low records may vary slightly from our data, if they occured in-between our weather recording intervals... More about our weather records

Advertising

Kunming weather history for previous 24 hours

 ConditionsComfort  
Time TempWeatherWind HumidityBarometerVisibility
8:00 PM
Oct 22
61 °FClear.8 mph63%30.27 "Hg10 mi
7:00 PM61 °FPassing clouds.3 mph63%30.27 "HgN/A
6:00 PM66 °FScattered clouds.10 mph46%30.24 "HgN/A
5:00 PM68 °FScattered clouds.10 mph40%30.24 "HgN/A
4:00 PM70 °FScattered clouds.10 mph43%30.27 "HgN/A
3:00 PM68 °FScattered clouds.10 mph46%30.30 "HgN/A
2:00 PM66 °FScattered clouds.8 mph49%30.33 "HgN/A
1:00 PM66 °FPartly sunny.10 mph56%30.36 "HgN/A
12:00 PM64 °FScattered clouds.8 mph56%30.39 "HgN/A
11:00 AM63 °FScattered clouds.3 mph73%30.45 "HgN/A
10:00 AM59 °FBroken clouds.1 mph88%30.45 "Hg5 mi
9:00 AM54 °FFog.3 mph100%30.42 "Hg2 mi
8:00 AM50 °FFog.No wind100%30.42 "Hg1 mi
7:00 AM50 °FFog.3 mph100%30.39 "Hg2 mi
6:00 AM52 °FFog.3 mph100%30.39 "Hg3 mi
5:00 AM52 °FPartly cloudy.1 mph100%30.36 "Hg4 mi
4:00 AM52 °FPartly cloudy.6 mph100%30.36 "Hg4 mi
3:00 AM52 °FPartly cloudy.3 mph100%30.39 "Hg4 mi
2:00 AM52 °FClear.6 mph94%30.39 "Hg6 mi
1:00 AM54 °FClear.6 mph88%30.39 "Hg10 mi
12:00 AM57 °FClear.3 mph77%30.39 "Hg10 mi
11:00 PM
Oct 21
52 °FClear.8 mph88%30.39 "Hg10 mi
10:00 PM54 °FPassing clouds.3 mph82%30.39 "HgN/A
9:00 PM57 °FPassing clouds.No wind63%30.36 "HgN/A
Weather by CustomWeather, © 2014

See weather overviewHow to use our weather pages